Flag for Slovakia Weather past 2 weeks in Košice, Slovakia

Now
28 °F

Passing clouds.


Feels Like: 25 °F
Forecast: 31 / 45 °F
Wind: 3 mph from Southwest

Location: Kosice - Barca

Current Time: Apr 2, 2015 at 6:34:35 AM

Latest Report: Apr 2, 2015 at 6:00 AM


Visibility: N/A

Pressure: 29.83 "Hg

Humidity: 86%

Dew point: 25 °F

Location of KošiceLocation

Historic Weather in Košice — Graph

°F

Košice temperature yesterday

Maximum temperature yesterday: 50 °F (at 1:30 PM)
Minimum temperature yesterday: 30 °F (at 4:30 AM)
Average temperature yesterday: 39 °F

Past Weeks' High & Low Weather Summary

 TemperatureHumidityPressure
High72 °F (Mar 27, 1:30 PM)100% (Mar 31, 4:30 AM)30.42 "Hg (Mar 31, 4:30 AM)
Low27 °F (Mar 20, 6:00 AM)22% (Mar 23, 3:30 PM)29.39 "Hg (Mar 30, 4:30 PM)
Average45 °F63%29.92 "Hg
* Reported Mar 18 4:00 AM — Apr 2 5:00 AM, Košice, Weather by CustomWeather, © 2015

Note: Actual official high and low records may vary slightly from our data, if they occured in-between our weather recording intervals... More about our weather records

Advertising

Košice weather history for previous 24 hours

 ConditionsComfort  
Time TempWeatherWind HumidityBarometerVisibility
5:00 AM
Thu, Apr 2
28 °FClear.1 mph93%29.80 "Hg10 mi
4:30 AM28 °FClear.6 mph86%29.80 "Hg10 mi
4:00 AM30 °FClear.5 mph93%29.80 "Hg10 mi
3:30 AM28 °FPassing clouds.5 mph86%29.80 "HgN/A
3:00 AM28 °FClear.6 mph86%29.80 "Hg10 mi
2:30 AM32 °FPassing clouds.7 mph80%29.80 "HgN/A
2:00 AM32 °FClear.6 mph87%29.80 "Hg10 mi
1:30 AM32 °FClear.5 mph87%29.83 "Hg10 mi
1:00 AM34 °FClear.9 mph81%29.80 "Hg10 mi
12:30 AM34 °FClear.2 mph75%29.80 "Hg10 mi
12:00 AM34 °FClear.2 mph81%29.80 "Hg10 mi
11:30 PM
Wed, Apr 1
36 °FClear.3 mph75%29.80 "Hg10 mi
11:00 PM37 °FClear.1 mph65%29.80 "Hg10 mi
10:30 PM37 °FPassing clouds.6 mph70%29.80 "HgN/A
10:00 PM37 °FClear.9 mph70%29.77 "Hg10 mi
9:30 PM39 °FClear.7 mph65%29.77 "Hg10 mi
9:00 PM39 °FClear.8 mph61%29.77 "Hg10 mi
8:30 PM39 °FClear.5 mph61%29.74 "Hg10 mi
8:00 PM39 °FSunny.8 mph56%29.74 "Hg10 mi
7:30 PM41 °FSunny.7 mph53%29.71 "Hg10 mi
7:00 PM43 °FSunny.7 mph49%29.71 "Hg10 mi
6:30 PM45 °FSunny.13 mph46%29.71 "Hg10 mi
6:00 PM46 °FSunny.15 mph40%29.68 "Hg10 mi
5:30 PM46 °FPassing clouds.6 mph46%29.68 "HgN/A
5:00 PM46 °FSunny.12 mph43%29.68 "Hg10 mi
4:30 PM46 °FSunny.14 mph40%29.65 "Hg10 mi
4:00 PM46 °FSunny.14 mph40%29.65 "Hg10 mi
3:30 PM46 °FScattered showers. Scattered clouds.16 mph43%29.65 "HgN/A
3:00 PM46 °FScattered showers. Scattered clouds.16 mph46%29.65 "HgN/A
2:30 PM48 °FScattered clouds.16 mph46%29.62 "HgN/A
2:00 PM46 °FSprinkles. Scattered clouds.18 mph50%29.62 "HgN/A
1:30 PM50 °FScattered clouds.18 mph40%29.62 "HgN/A
1:00 PM45 °FBroken clouds.17 mph57%29.65 "HgN/A
12:30 PM43 °FScattered clouds.14 mph66%29.65 "HgN/A
12:00 PM45 °FScattered showers. Scattered clouds.7 mph66%29.62 "HgN/A
11:30 AM43 °FBroken clouds.5 mph71%29.65 "HgN/A
11:00 AM43 °FScattered clouds.9 mph76%29.65 "HgN/A
10:30 AM39 °FScattered clouds.13 mph75%29.62 "HgN/A
10:00 AM43 °FBroken clouds.13 mph61%29.62 "HgN/A
9:30 AM41 °FSunny.14 mph76%29.59 "Hg10 mi
9:00 AM37 °FSunny.3 mph81%29.59 "Hg10 mi
8:30 AM37 °FSunny.13 mph75%29.59 "Hg10 mi
8:00 AM36 °FSunny.10 mph81%29.56 "Hg10 mi
7:30 AM34 °FSunny.1 mph87%29.56 "Hg10 mi
7:00 AM34 °FPassing clouds.5 mph93%29.56 "HgN/A
6:30 AM32 °FPassing clouds.3 mph93%29.56 "HgN/A
6:00 AM30 °FClear.6 mph100%29.56 "Hg10 mi
Weather by CustomWeather, © 2015

See weather overviewHow to use our weather pages